Weather History for LKPR - August, 2013

Change the Weather History Date:

Saturday, August 10, 2013

  Actual Average Record
Temperature  
Mean Temperature 64 °F -  
Max Temperature 75 °F 71 °F 89 °F (2003)
Min Temperature 52 °F 51 °F 46 °F (2005)
Degree Days  
Heating Degree Days 2    
Growing Degree Days 14 (Base 50)    
Moisture  
Dew Point 55 °F    
Average Humidity 79    
Maximum Humidity 100    
Minimum Humidity 47    
Precipitation  
Precipitation 0.39 in 0.08 in - ()
Sea Level Pressure  
Sea Level Pressure 30.10 in    
Wind  
Wind Speed 7 mph ()    
Max Wind Speed 22 mph    
Max Gust Speed 25 mph    
Visibility 5.6 miles    
Events Rain    
Averages and records for this station are not official NWS values.
T = Trace of Precipitation, MM = Missing Value Source: Averaged Metar Reports

Daily Weather History Graph

Daily Weather History Graph

Search for Another Location

Airport or City:

Trip Planner

Search our weather history database for the weather conditions in past years. The results will help you decide how hot, cold, wet, or windy it might be!

Date:

Astronomy

Aug. 10, 2013 Rise Set
Actual Time 5:44 AM CEST 8:30 PM CEST
Civil Twilight 5:07 AM CEST 9:07 PM CEST
Nautical Twilight 4:20 AM CEST 9:54 PM CEST
Astronomical Twilight 3:22 AM CEST 10:51 PM CEST
Moon 9:41 AM CEST (8/10) 9:32 PM CEST (8/10)
Length of Visible Light 15h 59m
Length of Day
14h 45m
Waxing Crescent, 12% of the Moon is Illuminated
Aug 10
Waxing Crescent
Aug 14
First Quarter
Aug 21
Full
Aug 28
Last Quarter
Sep 5
New

Hourly Weather History & Observations

Time (CEST) Temp. Dew Point Humidity Pressure Visibility Wind Dir Wind Speed Gust Speed Precip Events Conditions
12:00 AM 55.4 °F 53.6 °F 94% 30.12 in - West 8.1 mph - N/A   Clear
12:30 AM 57.2 °F 53.6 °F 88% 30.12 in - West 8.1 mph - N/A   Clear
1:00 AM 55.4 °F 53.6 °F 94% 30.12 in - WNW 8.1 mph - N/A   Clear
1:30 AM 55.4 °F 53.6 °F 94% 30.15 in 6.2 mi West 5.8 mph - N/A   Partly Cloudy
2:00 AM 55 °F 54 °F 93% 30.17 in 6 mi WSW 6.7 mph - -   Partly Cloudy
2:00 AM 55.4 °F 53.6 °F 94% 30.15 in 6.2 mi West 8.1 mph - N/A   Mostly Cloudy
2:30 AM 55.4 °F 53.6 °F 94% 30.15 in 6.2 mi West 8.1 mph - N/A   Partly Cloudy
3:00 AM 53.6 °F 53.6 °F 100% 30.12 in - West 6.9 mph - N/A   Clear
3:30 AM 53.6 °F 51.8 °F 94% 30.12 in 5.6 mi West 8.1 mph - N/A   Unknown
4:00 AM 53.6 °F 51.8 °F 94% 30.12 in - WSW 5.8 mph - N/A   Clear
4:30 AM 53.6 °F 51.8 °F 94% 30.12 in 5.6 mi WSW 6.9 mph - N/A   Unknown
5:00 AM 53.6 °F 51.8 °F 94% 30.12 in 5.6 mi WSW 5.8 mph - N/A   Unknown
5:30 AM 53.6 °F 51.8 °F 94% 30.12 in 5.0 mi WSW 6.9 mph - N/A   Unknown
6:00 AM 51.8 °F 51.8 °F 100% 30.12 in 4.3 mi SSW 3.5 mph - N/A   Unknown
6:30 AM 53.6 °F 51.8 °F 94% 30.12 in 5.0 mi WSW 8.1 mph - N/A   Unknown
7:00 AM 55.4 °F 53.6 °F 94% 30.12 in 5.6 mi WSW 8.1 mph - N/A   Unknown
7:30 AM 55.4 °F 53.6 °F 94% 30.12 in 5.6 mi SW 8.1 mph - N/A   Partly Cloudy
8:00 AM 56 °F 55 °F 95% 30.14 in 3 mi WSW 6.7 mph - -   Mist
8:00 AM 55.4 °F 53.6 °F 94% 30.12 in 3.1 mi WSW 10.4 mph - N/A   Partly Cloudy
8:30 AM 57.2 °F 55.4 °F 94% 30.12 in 4.3 mi WSW 9.2 mph - N/A   Partly Cloudy
9:00 AM 59.0 °F 57.2 °F 94% 30.12 in 6.2 mi SW 6.9 mph - N/A   Partly Cloudy
9:30 AM 60.8 °F 57.2 °F 88% 30.12 in 6.2 mi SW 6.9 mph - N/A   Partly Cloudy
10:00 AM 60.8 °F 57.2 °F 88% 30.12 in 6.2 mi WSW 9.2 mph - N/A   Partly Cloudy
10:30 AM 64.4 °F 59.0 °F 83% 30.12 in 6.2 mi SW 8.1 mph - N/A   Partly Cloudy
11:00 AM 66.2 °F 59.0 °F 78% 30.12 in 6.2 mi WSW 6.9 mph - N/A   Scattered Clouds
11:30 AM 66.2 °F 57.2 °F 73% 30.12 in 6.2 mi WSW 5.8 mph - N/A   Partly Cloudy
12:00 PM 68.0 °F 57.2 °F 68% 30.12 in 6.2 mi West 8.1 mph - N/A   Scattered Clouds
12:30 PM 69.8 °F 55.4 °F 60% 30.12 in 6.2 mi West 10.4 mph - N/A   Scattered Clouds
1:00 PM 71.6 °F 51.8 °F 50% 30.12 in 6.2 mi WNW 9.2 mph - N/A   Scattered Clouds
1:30 PM 71.6 °F 55.4 °F 57% 30.09 in 6.2 mi NW 8.1 mph - N/A   Scattered Clouds
2:00 PM 71.6 °F 55.4 °F 57% 30.09 in 6.2 mi West 9.2 mph - N/A   Scattered Clouds
2:30 PM 73.4 °F 55.4 °F 53% 30.09 in 6.2 mi WSW 8.1 mph - N/A   Scattered Clouds
3:00 PM 73.4 °F 57.2 °F 57% 30.09 in 6.2 mi SW 8.1 mph - N/A   Partly Cloudy
3:30 PM 73.4 °F 57.2 °F 57% 30.09 in 6.2 mi SW 8.1 mph - N/A   Scattered Clouds
4:00 PM 71.6 °F 55.4 °F 57% 30.06 in 6.2 mi WSW 5.8 mph - N/A   Mostly Cloudy
4:30 PM 71.6 °F 55.4 °F 57% 30.06 in 6.2 mi Variable 2.3 mph - N/A   Scattered Clouds
5:00 PM 73.4 °F 53.6 °F 50% 30.06 in 6.2 mi NW 3.5 mph - N/A   Partly Cloudy
5:30 PM 71.6 °F 53.6 °F 53% 30.06 in 6.2 mi West 4.6 mph - N/A   Scattered Clouds
6:00 PM 71.6 °F 53.6 °F 53% 30.06 in - West 4.6 mph - N/A   Clear
6:30 PM 71.6 °F 55.4 °F 57% 30.06 in - West 4.6 mph - N/A   Clear
7:00 PM 71.6 °F 53.6 °F 53% 30.06 in - WSW 8.1 mph - N/A   Clear
7:30 PM 71.6 °F 53.6 °F 53% 30.06 in - NNW 6.9 mph - N/A   Clear
8:00 PM 69 °F 53 °F 47% 30.04 in 25 mi NNW 4.5 mph - -   Partly Cloudy
8:00 PM 68.0 °F 53.6 °F 60% 30.06 in - Variable 2.3 mph - N/A   Clear
8:17 PM 68.0 °F 55.4 °F 64% 30.06 in 6.2 mi NNW 4.6 mph 16.1 mph N/A Rain Light Rain Showers
8:20 PM 66.2 °F 53.6 °F 64% 30.09 in 6.2 mi NNW 21.9 mph - N/A Rain Light Rain Showers
8:30 PM 64.4 °F 53.6 °F 68% 30.09 in 6.2 mi NNW 21.9 mph - N/A Rain Light Rain Showers
8:37 PM 62.6 °F 55.4 °F 77% 30.09 in 2.5 mi NNW 19.6 mph - N/A Rain Rain Showers
8:50 PM 59.0 °F 57.2 °F 94% 30.12 in 1.7 mi WNW 16.1 mph - N/A Rain Heavy Rain Showers
9:00 PM 59.0 °F 57.2 °F 94% 30.12 in 3.1 mi NW 16.1 mph - N/A Rain Rain Showers
9:07 PM 59.0 °F 57.2 °F 94% 30.09 in 6.2 mi NNW 13.8 mph 25.3 mph N/A Rain Light Rain Showers
9:30 PM 60.8 °F 57.2 °F 88% 30.09 in 6.2 mi North 9.2 mph - N/A Rain Light Rain Showers
10:00 PM 59.0 °F 55.4 °F 88% 30.06 in 6.2 mi Calm Calm - N/A   Partly Cloudy
10:30 PM 57.2 °F 55.4 °F 94% 30.06 in - SSW 4.6 mph - N/A   Clear
11:00 PM 57.2 °F 55.4 °F 94% 30.06 in - SSW 10.4 mph - N/A   Clear
11:30 PM 57.2 °F 55.4 °F 94% 30.09 in - SSW 9.2 mph - N/A   Clear